TimeEDT,TemperatureF,Dew PointF,Humidity,Sea Level PressureIn,VisibilityMPH,Wind Direction,Wind SpeedMPH,Gust SpeedMPH,PrecipitationIn,Events,Conditions,WindDirDegrees,DateUTC
12:16 AM,43.9,41.0,90,29.95,10.0,SW,3.5,-,N/A,,Clear,230,2012-10-01 04:16:00
12:36 AM,43.0,39.6,88,29.94,10.0,Calm,Calm,-,N/A,,Clear,0,2012-10-01 04:36:00
12:56 AM,43.9,40.5,88,29.94,10.0,Calm,Calm,-,N/A,,Clear,0,2012-10-01 04:56:00
1:15 AM,43.7,40.5,88,29.94,10.0,Calm,Calm,-,N/A,,Clear,0,2012-10-01 05:15:00
1:36 AM,43.2,40.1,89,29.93,10.0,Calm,Calm,-,N/A,,Clear,0,2012-10-01 05:36:00
1:56 AM,42.8,39.2,87,29.93,10.0,Calm,Calm,-,N/A,,Clear,0,2012-10-01 05:56:00
2:15 AM,42.6,39.6,89,29.93,10.0,Calm,Calm,-,N/A,,Clear,0,2012-10-01 06:15:00
2:36 AM,42.8,40.1,90,29.92,10.0,SSW,4.6,-,N/A,,Clear,210,2012-10-01 06:36:00
2:56 AM,41.0,39.2,93,29.91,10.0,SW,4.6,-,N/A,,Clear,220,2012-10-01 06:56:00
3:15 AM,42.8,40.3,91,29.91,10.0,SW,4.6,-,N/A,,Clear,230,2012-10-01 07:15:00
3:36 AM,42.8,40.3,91,29.90,10.0,SW,4.6,-,N/A,,Clear,230,2012-10-01 07:36:00
3:56 AM,41.4,39.0,91,29.90,10.0,SW,3.5,-,N/A,,Clear,230,2012-10-01 07:56:00
4:16 AM,41.9,39.6,91,29.90,10.0,Calm,Calm,-,N/A,,Clear,0,2012-10-01 08:16:00
4:36 AM,42.8,40.5,91,29.89,5.0,Calm,Calm,-,N/A,,Clear,0,2012-10-01 08:36:00
4:56 AM,42.8,40.6,92,29.89,7.0,Calm,Calm,-,N/A,,Clear,0,2012-10-01 08:56:00
5:16 AM,42.3,40.1,92,29.89,10.0,Calm,Calm,-,N/A,,Clear,0,2012-10-01 09:16:00
5:36 AM,41.9,39.9,93,29.88,1.5,Calm,Calm,-,N/A,,Mist,0,2012-10-01 09:36:00
5:56 AM,41.5,39.4,92,29.88,10.0,Calm,Calm,-,N/A,,Clear,0,2012-10-01 09:56:00
6:50 AM,39.2,37.4,93,29.88,1.2,South,5.8,-,N/A,,Scattered Clouds,190,2012-10-01 10:50:00
7:55 AM,39.2,37.4,93,29.88,0.5,SSW,4.6,-,N/A,Fog,Fog,200,2012-10-01 11:55:00
8:25 AM,39.2,37.4,93,29.87,5.0,Calm,Calm,-,N/A,,Scattered Clouds,0,2012-10-01 12:25:00
8:55 AM,41.0,39.2,93,29.87,7.0,Calm,Calm,-,N/A,,Clear,0,2012-10-01 12:55:00
9:50 AM,44.6,42.8,93,29.88,10.0,SSW,5.8,-,N/A,,Clear,210,2012-10-01 13:50:00
10:50 AM,51.8,42.8,71,29.87,10.0,SW,6.9,-,N/A,,Clear,230,2012-10-01 14:50:00
11:55 AM,57.2,42.8,59,29.86,10.0,SW,8.1,-,N/A,,Clear,230,2012-10-01 15:55:00
12:55 PM,62.6,42.8,48,29.84,10.0,SSW,6.9,-,N/A,,Clear,200,2012-10-01 16:55:00
1:50 PM,66.2,42.8,43,29.82,10.0,SSW,9.2,-,N/A,,Clear,210,2012-10-01 17:50:00
2:50 PM,69.8,41.0,35,29.81,10.0,SW,8.1,-,N/A,,Clear,220,2012-10-01 18:50:00
3:50 PM,69.8,39.2,33,29.80,10.0,SW,9.2,-,N/A,,Clear,220,2012-10-01 19:50:00
5:55 PM,68.0,41.0,37,29.80,10.0,SSW,5.8,-,N/A,,Clear,210,2012-10-01 21:55:00
6:50 PM,64.4,44.6,49,29.81,10.0,NE,10.4,-,N/A,,Clear,50,2012-10-01 22:50:00
7:55 PM,57.2,46.4,67,29.84,10.0,NNE,5.8,-,N/A,,Clear,20,2012-10-01 23:55:00
8:55 PM,55.4,48.2,77,29.87,10.0,NNW,5.8,-,N/A,,Clear,340,2012-10-02 00:55:00
9:50 PM,55.4,44.6,67,29.88,10.0,North,8.1,-,N/A,,Clear,360,2012-10-02 01:50:00
10:16 PM,53.8,45.0,72,29.88,10.0,North,5.8,-,N/A,,Clear,360,2012-10-02 02:16:00
10:36 PM,53.1,45.5,75,29.88,10.0,North,6.9,-,N/A,,Clear,360,2012-10-02 02:36:00
10:55 PM,53.4,45.9,76,29.88,10.0,North,5.8,-,N/A,,Mostly Cloudy,360,2012-10-02 02:55:00
11:16 PM,52.5,45.5,77,29.88,10.0,North,4.6,-,N/A,,Scattered Clouds,350,2012-10-02 03:16:00
11:36 PM,52.0,45.7,79,29.89,10.0,NNW,4.6,-,N/A,,Clear,340,2012-10-02 03:36:00
11:56 PM,51.8,46.4,82,29.89,10.0,NNW,4.6,-,N/A,,Scattered Clouds,340,2012-10-02 03:56:00